This is the latest recevied weather packets stored in our database for station/object K1TTC. If no packets are shown the sender has not sent any weather packets the latest 10 day(s).
| Time | Temp. | Humidity | Pressure | Rain* | Wind** | Luminosity | Snow |
|---|---|---|---|---|---|---|---|
| 1777601847 | 10.56° C | 77% | 1008.2 hPa | 0 mm | - | 0 W/m² | - |
| 1777601248 | 10.56° C | 77% | 1008.3 hPa | 0 mm | - | 0 W/m² | - |
| 1777600696 | 10.56° C | 77% | 1008.3 hPa | 0 mm | - | 0 W/m² | - |
| 1777600099 | 10.56° C | 77% | 1008.4 hPa | 0 mm | - | 0 W/m² | - |
| 1777599442 | 10.56° C | 77% | 1008.3 hPa | 0 mm | - | 0 W/m² | - |
| 1777598899 | 10.56° C | 77% | 1008.3 hPa | 0 mm | - | 0 W/m² | - |
| 1777598298 | 10.56° C | 77% | 1008.2 hPa | 0 mm | - | 0 W/m² | - |
| 1777597643 | 10.56° C | 77% | 1008.2 hPa | 0 mm | - | 0 W/m² | - |
| 1777597042 | 10.56° C | 76% | 1008.1 hPa | 0 mm | - | 0 W/m² | - |
| 1777596456 | 10.56° C | 76% | 1008 hPa | 0 mm | - | 0 W/m² | - |
| 1777595843 | 10.56° C | 76% | 1007.9 hPa | 0 mm | - | 0 W/m² | - |
| 1777595235 | 11.11° C | 76% | 1007.7 hPa | 0 mm | - | 0 W/m² | - |
| 1777594638 | 11.11° C | 76% | 1007.6 hPa | 0 mm | - | 0 W/m² | - |
| 1777594037 | 11.11° C | 76% | 1007.6 hPa | 0 mm | - | 0 W/m² | - |
| 1777593438 | 11.11° C | 76% | 1007.7 hPa | 0 mm | - | 0 W/m² | - |
| 1777592833 | 11.11° C | 76% | 1007.5 hPa | 0 mm | - | 0 W/m² | - |
| 1777592234 | 11.11° C | 76% | 1007.5 hPa | 0 mm | - | 0 W/m² | - |
| 1777591638 | 11.11° C | 76% | 1007.4 hPa | 0 mm | - | 7 W/m² | - |
| 1777591029 | 11.11° C | 76% | 1007.4 hPa | 0 mm | - | 12 W/m² | - |
| 1777590471 | 11.11° C | 76% | 1007.2 hPa | 0 mm | - | 19 W/m² | - |
| 1777589822 | 11.11° C | 76% | 1007.1 hPa | 0 mm | - | 25 W/m² | - |
| 1777589221 | 11.11° C | 77% | 1007.2 hPa | 0 mm | - | 25 W/m² | - |
| 1777588622 | 11.11° C | 77% | 1007.1 hPa | 0 mm | - | 33 W/m² | - |
| 1777588023 | 11.11° C | 78% | 1007.1 hPa | 0 mm | - | 46 W/m² | - |
| 1777587420 | 11.11° C | 78% | 1007.1 hPa | 0 mm | - | 39 W/m² | - |
* Rain latest hour (hover to see other rain measurements)
** Current wind speed in m/s (hover to see current wind gust speed)